SIRIUS-1

Last updated on Sat Jan 05 2019 02:57:31 GMT+0000 (Coordinated Universal Time)

1 26390U 00035A 19003.39855642 .00000096 00000-0 00000-0 0 9998 2 26390 59.4283 214.6789 0001530 61.9196 112.1472 1.57877111 28928

Satellite not in orbit

SIRIUS-1